Regional Weather Roundup
Issued by NWS Jackson, KY

Home | Current Version | Previous Version | Text Only | Print | Product List | Glossary On
Versions: 1 2 3 4 5 6 7 8 9 10 11 12 13 14 15 16 17 18 19 20 21 22 23 24 25 26 27 28 29 30 31 32 33 34 35 36 37 38 39 40 41 42 43 44 45 46 47 48 49 50
000
ASUS43 KJKL 011811
RWRJKL

EAST KENTUCKY HOURLY WEATHER ROUNDUP
NATIONAL WEATHER SERVICE JACKSON KY
200 PM EDT WED OCT 01 2014

NOTE: "FAIR" INDICATES FEW OR NO CLOUDS BELOW 12,000 FEET WITH
NO SIGNIFICANT WEATHER AND/OR OBSTRUCTIONS TO VISIBILITY.

* THESE REPORTS ARE NOT UNDER NWS QUALITY CONTROL AND MAY NOT
  REPORT WEATHER SUCH AS PRECIPITATION AND FOG.

KYZ079-080-083-085-087-088-110-112-115-119-120-011900
...EASTERN KENTUCKY...

CITY           SKY/WX    TMP DP  RH WIND       PRES   REMARKS
JACKSON        SUNNY     76  61  59 VRB3      30.03F
6HR MIN TEMP:  58; 6HR MAX TEMP:  76;

LONDON         SUNNY     82  54  37 W6        30.02F
6HR MIN TEMP:  53; 6HR MAX TEMP:  82;

SOMERSET*      SUNNY     81  50  34 W6        30.02F
MONTICELLO*    PTSUNNY   84  54  35 VRB5      30.02F
6HR MIN TEMP:  52; 6HR MAX TEMP:  84;

WILLIAMSBURG*  MOSUNNY   81  55  41 NW6       30.02F
MIDDLESBORO*   MOSUNNY   78  55  45 CALM      30.02F
6HR MIN TEMP:  53; 6HR MAX TEMP:  80;

HARLAN APT*    MOCLDY    81  45  28 CALM      30.03F
HAZARD APT*    CLEAR     79  57  47 SW6       30.02F
BLACK MTN*       N/A     68  50  52 N5          N/A
PIKEVILLE APT* SUNNY     73  61  64 NW3       30.03F
BIG SANDY*     CLEAR     74  63  66 CALM      30.02F
6HR MIN TEMP:  59; 6HR MAX TEMP:  75;

MOREHEAD APT*  CLEAR     73  61  64 VRB3      30.04F
$$

KYZ035-036-041-042-044-050-067-078-099-011900
...CENTRAL KENTUCKY...

CITY           SKY/WX    TMP DP  RH WIND       PRES   REMARKS
MT STERLING*   SUNNY     73  63  68 CALM      30.03F
FLEMING/MASON* SUNNY     73  59  60 NW3       30.03F
DANVILLE*      CLOUDY    81  61  50 NW5       30.02S
RICHMOND*      CLOUDY    77  57  50 CALM      30.01F
LEXINGTON      SUNNY     79  61  53 VRB3      30.02F
6HR MIN TEMP:  58; 6HR MAX TEMP:  79;

FRANKFORT      SUNNY     76  61  59 VRB5      30.01F
6HR MIN TEMP:  53; 6HR MAX TEMP:  76;

$$

KYZ091>093-OHZ055-061-077-WVZ005-015-034-035-042-011900
...SOUTHERN OHIO/WEST VIRGINIA...

CITY           SKY/WX    TMP DP  RH WIND       PRES   REMARKS
COVINGTON      MOSUNNY   73  52  47 CALM      30.02F
COLUMBUS       PTSUNNY   65  49  56 NE5       30.03F
DAYTON         PTSUNNY   60  52  74 CALM      30.06F
WILMINGTON     MOSUNNY   61  51  70 VRB6      30.05F
HUNTINGTON     PTSUNNY   72  61  68 CALM      30.01F
CHARLESTON     CLOUDY    66  59  78 N3        30.03F
PINEVILLE*     SUNNY     80  61  53 MISG      30.08F
BECKLEY        PTSUNNY   74  51  44 W8        30.05F
BLUEFIELD      MOSUNNY   76  50  40 W14       30.09S
$$

VAZ002-007-008-TNZ017-027-036-066-071-011900
...SOUTHWEST VIRGINIA/EAST TENNESSEE...

CITY           SKY/WX    TMP DP  RH WIND       PRES   REMARKS
WISE*          MOSUNNY   77  45  31 NW8       30.09F
JONESVILLE*    PTCLDY    81  52  36 CALM      30.05F
ABINGDON*      PTSUNNY   75  52  44 NW3       30.06F
BRISTOL        MOSUNNY   77  48  35 W3        30.04F
KNOXVILLE      PTSUNNY   81  54  39 VRB5      30.00F
OAK RIDGE      MOSUNNY   80  59  48 VRB3      30.03F
CROSSVILLE     SUNNY     78  50  37 MISG      30.05F
NASHVILLE      MOSUNNY   86  53  32 S6        29.98F
$$

...KEY TO REMARKS...
VSB - VISIBILITY IN MILES
WCI - WIND CHILL INDEX
HX  - HEAT INDEX

$$



USA.gov is the U.S. government's official web portal to all federal, state and local government web resources and services.